Regional Weather Roundup
Issued by NWS Jackson, KY

Home | Current Version | Previous Version | Text Only | Print | Product List | Glossary Off
Versions: 1 2 3 4 5 6 7 8 9 10 11 12 13 14 15 16 17 18 19 20 21 22 23 24 25 26 27 28 29 30 31 32 33 34 35 36 37 38 39 40 41 42 43 44 45 46 47 48 49 50

000
ASUS43 KJKL 222019
RWRJKL

EAST KENTUCKY HOURLY WEATHER ROUNDUP
NATIONAL WEATHER SERVICE JACKSON KY
400 PM EDT TUE JUL 22 2014

NOTE: "FAIR" INDICATES FEW OR NO CLOUDS BELOW 12,000 FEET WITH
NO SIGNIFICANT WEATHER AND/OR OBSTRUCTIONS TO VISIBILITY.

* THESE REPORTS ARE NOT UNDER NWS QUALITY CONTROL AND MAY NOT
  REPORT WEATHER SUCH AS PRECIPITATION AND FOG.

KYZ079-080-083-085-087-088-110-112-115-119-120-222100
...EASTERN KENTUCKY...

CITY           SKY/WX    TMP DP  RH WIND       PRES   REMARKS
JACKSON        SUNNY     87  67  51 CALM      30.11F HX  90
LONDON         MOSUNNY   87  68  52 CALM      30.11F HX  90
SOMERSET*      PTSUNNY   88  68  51 W7        30.10F HX  91
MONTICELLO*    MOSUNNY   90  72  55 CALM      30.11F HX  97
WILLIAMSBURG*  PTSUNNY   86  70  58 CALM      30.10F HX  90
MIDDLESBORO*   MOSUNNY   88  69  53 S3        30.11F HX  92
HARLAN APT*    PTCLDY    86  63  45 MISG      30.13F
HAZARD APT*    CLOUDY    88  68  51 CALM      30.11F HX  91
BLACK MTN*       N/A     79  66  65 S3          N/A
PIKEVILLE APT* SUNNY     86  68  54 CALM      30.12F
BIG SANDY*     PTCLDY    89  70  53 SE3       30.11S HX  93
MOREHEAD APT*    N/A     88  70  55 CALM      30.10F HX  92
ASHLAND*       MOSUNNY   90  68  48 SW3       30.05F HX  93
$$

KYZ035-036-041-042-044-050-067-078-099-222100
...CENTRAL KENTUCKY...

CITY           SKY/WX    TMP DP  RH WIND       PRES   REMARKS
MT STERLING*   PTSUNNY   88  72  58 N3        30.09F HX  94
FLEMING/MASON* PTSUNNY   90  72  55 S3        30.08F HX  96
DANVILLE*      CLOUDY    86  72  62 CALM      30.10F HX  92
RICHMOND*      MOSUNNY   88  68  51 SW7       30.08F HX  91
LEXINGTON      MOSUNNY   90  70  51 S10G17    30.08F HX  95
FRANKFORT      SUNNY     88  69  53 NW5       30.06F HX  92
$$

KYZ091>093-OHZ055-061-077-WVZ005-015-034-035-042-222100
...SOUTHERN OHIO/WEST VIRGINIA...

CITY           SKY/WX    TMP DP  RH WIND       PRES   REMARKS
COVINGTON      MOSUNNY   90  66  45 SW10      30.07F HX  92
COLUMBUS       MOSUNNY   91  66  43 S10       30.05F HX  93
DAYTON         MOSUNNY   88  66  48 SW9       30.08F HX  90
WILMINGTON     MOSUNNY   87  67  51 S7        30.07F HX  90
HUNTINGTON     MOSUNNY   89  67  47 SW6       30.07F HX  92
CHARLESTON     MOSUNNY   89  68  49 SW3       30.08F HX  93
PINEVILLE*     PTSUNNY   91  71  51 MISG      30.18F HX  97
BECKLEY        MOSUNNY   84  62  47 MISG      30.18F
BLUEFIELD      MOSUNNY   84  62  47 VRB6      30.21F
$$

VAZ002-007-008-TNZ017-027-036-066-071-222100
...SOUTHWEST VIRGINIA/EAST TENNESSEE...

CITY           SKY/WX    TMP DP  RH WIND       PRES   REMARKS
WISE*          MOSUNNY   84  61  45 SE6       30.21S
JONESVILLE*    CLEAR     84  68  58 CALM      30.14F
ABINGDON*      SUNNY     87  64  47 SE7       30.16F
BRISTOL        MOSUNNY   89  65  44 N5        30.12F HX  91
KNOXVILLE      PTSUNNY   87  68  52 CALM      30.09F HX  90
OAK RIDGE      MOSUNNY   88  69  53 VRB3      30.10F HX  92
CROSSVILLE     CLOUDY    81  67  62 SW3       30.16F
NASHVILLE      PTSUNNY   90  69  50 S7        30.08F HX  94
$$

...KEY TO REMARKS...
VSB - VISIBILITY IN MILES
WCI - WIND CHILL INDEX
HX  - HEAT INDEX

$$


USA.gov is the U.S. government's official web portal to all federal, state and local government web resources and services.